STARLINK-30369, 57781

Orbit data source: Space-Track

STARLINK-30369, 57781 is a payload satellite owned by SpaceX/Seattle (US) in LEO that was launched on Mon, 04 Sep 2023 UTC via an FALCON 9 launch vehicle from the Air Force Eastern Test Range (AFETR). Payload-class satellites include a variety of spacecraft equipped with specific instruments for various scientific and technological missions. These include communications satellites like Starlink; space stations such as the ISS; scientific satellites like the Hubble; Earth observation satellites from companies like Planet Labs, Umbra, and HawkEye 360; GPS; miniature CubeSats for education and research; and military/defense satellites.

Loading next visibility...
Identifier
57781, 2023-134L
Orbit
LEO
Country
Flag of USUS
Related business
Manufacturer
SpaceX/Seattle
Mission
Operational Commercial Communications
Bus & Motor
STARLINK V2M, Unknown motor
Mass
730 kg wet, ~700 kg dry
Launch date (UTC)
2023-09-04 (2 years ago)
Launch vehicle
FALCON 9
Launch site
Air Force Eastern Test Range (AFETR)
Object type
Payload
Rocket body
Debris
Shape & HBR
Box + 2 Pan, 17.7 m
Radar Cross Section
33.884 m², Large (>1 m²)

Expand to show TLE details & history
Last TLE update: 20 hours ago

TLE from 20 hours ago
0 STARLINK-30369
1 57781U 23134L   25346.62550107 -.00000744  00000-0 -39980-4 0  9997
2 57781  43.0057 310.6547 0001222 274.4457  85.6246 15.02540178126378
Epoch: 2025-12-12T15:00Z
TLE epoch observation values (Epoch: 2025-12-12T15:00:43.292Z)
Latitude
-0°
Longitude
3.90988°
Altitude
558.781 km
Speed
7.584 km/s
True Right ascension
20h 42m 37s
True Declination
0° 00' 00"
Sunlit
Object was in daylight at epoch
Visualization orbit readout
Latitude
Unknown
Longitude
Unknown
Altitude
Unknown
Speed
Unknown
Apparent Right ascension
Unknown
Apparent Declination
Unknown
Sunlit
N/A
Visualization observer readout
Local Sidereal Time
09:17:55
Azimuth
Unknown
Elevation
Unknown
Doppler factor
Unknown
Orbital elements
Apogee altitude
561.838 km
Perigee altitude
560.142 km
Semi-major axis
6,939.127 km
Eccentricity
0.00012
Inclination
43.0057°
RAAN
310.6547°
Arg. of periapsis
274.4457°
True anomaly
85.63856°
Mean anomaly
85.6246°
Eccentric anomaly
85.63158°
Mean motion
3.75479 °/min
Orbital period
95.88 mins
BSTAR
-0.00003998
Loading maneuver chart data...
Computing Atmospheric mass density...
Loading historical data...
Loading historical data...
Loading historical data...
Loading historical data...
Loading historical data...
Loading historical data...
Loading historical data...

Documentation

Showing up to 5 results
|